Flag for Canada Weather past 2 weeks in Owen Sound, Ontario, Canada

Now
50 °F

Clear.


Feels Like: 50 °F
Forecast: 48 / 71 °F
Wind: 2 mph from Southeast

Location: Wiarton

Current Time: Aug 28, 2014 at 11:25:59 PM

Latest Report: Aug 28, 2014 at 10:00 PM


Visibility: 15 mi

Pressure: 30.16 "Hg

Humidity: 94%

Dew point: 48 °F

Location of Owen SoundLocation

Historic Weather in Owen Sound — Graph

°F

Owen Sound temperature yesterday

Maximum temperature yesterday: 64 °F (at 12:00 AM)
Minimum temperature yesterday: 52 °F (at 7:00 AM)
Average temperature yesterday: 60 °F

Past Weeks' High & Low Weather Summary

 TemperatureHumidityPressure
High81 °F (Aug 25, 3:00 PM)100% (Aug 15, 1:00 AM)30.19 "Hg (Aug 15, 1:00 AM)
Low46 °F (Aug 18, 3:00 AM)56% (Aug 15, 4:00 PM)29.75 "Hg (Aug 16, 1:00 PM)
Average63 °F84%29.99 "Hg
* Reported Aug 13 10:00 PM — Aug 28 10:00 PM, Owen Sound, Weather by CustomWeather, © 2014

Note: Actual official high and low records may vary slightly from our data, if they occured in-between our weather recording intervals... More about our weather records

Advertising

Owen Sound weather history for previous 24 hours

 ConditionsComfort  
Time TempWeatherWind HumidityBarometerVisibility
10:00 PM
Aug 28
50 °FClear.2 mph94%30.16 "Hg15 mi
9:00 PM57 °FScattered clouds.3 mph82%30.15 "Hg15 mi
8:00 PM59 °FPartly sunny.5 mph77%30.14 "Hg15 mi
7:00 PM63 °FScattered clouds.5 mph68%30.13 "Hg15 mi
6:00 PM64 °FPassing clouds.8 mph60%30.14 "Hg15 mi
5:00 PM66 °FPassing clouds.6 mph56%30.13 "Hg15 mi
4:00 PM66 °FBroken clouds.9 mph60%30.13 "Hg15 mi
3:00 PM66 °FPartly sunny.8 mph64%30.14 "Hg15 mi
2:00 PM66 °FScattered clouds.6 mph64%30.14 "Hg15 mi
1:00 PM66 °FScattered clouds.7 mph56%30.14 "Hg15 mi
12:00 PM64 °FPassing clouds.7 mph64%30.14 "Hg15 mi
11:00 AM64 °FPassing clouds.3 mph64%30.16 "Hg15 mi
10:00 AM61 °FPassing clouds.6 mph72%30.16 "Hg15 mi
9:00 AM59 °FPassing clouds.2 mph82%30.15 "Hg15 mi
8:00 AM55 °FPassing clouds.5 mph88%30.14 "Hg15 mi
7:00 AM52 °FPassing clouds.2 mph94%30.13 "Hg15 mi
6:00 AM52 °FPassing clouds.3 mph94%30.11 "Hg15 mi
5:00 AM54 °FClear.2 mph88%30.10 "Hg15 mi
4:00 AM54 °FClear.3 mph94%30.10 "Hg15 mi
3:00 AM55 °FPassing clouds.2 mph88%30.10 "Hg15 mi
2:00 AM55 °FPassing clouds.5 mph88%30.10 "Hg15 mi
1:00 AM55 °FClear.3 mph82%30.10 "Hg15 mi
12:00 AM54 °FClear.No wind82%30.09 "Hg15 mi
11:00 PM
Aug 27
57 °FClear.2 mph77%30.09 "Hg15 mi
Weather by CustomWeather, © 2014

See weather overviewHow to use our weather pages